カタログに戻る

STARLINK-35782

運用中通信VLEO
NORAD 67182·PAYLOAD·🇺🇸 United States

打ち上げ Dec 17, 2025 から Cape Canaveral Space Force Station

Loading…

次のパス (今後24時間)

TLE

最新Source: CelesTrak SupGP

元期: Sep 15, 2026, 04:07 UTC

1 67182C 25303V   26258.17201389  .00025338  00000+0  91761-3 0  2586
2 67182  43.0014 320.2622 0001217 263.5744 257.5609 15.27571180    19

AllMySatでSTARLINK-35782をリアルタイム追跡

Download on the App Store